星链-3375 (STARLINK-3375 )

导读 | 星芒AI

STARLINK-3375 是 SpaceX Starlink 项目中的一颗低轨通信卫星,旨在为全球用户提供高速互联网服务。该卫星属于 Starlink 群体部署计划的一部分,通常通过猎鹰九号火箭发射入轨。它运行在约 550 公里的高度,采用先进的相控阵天线和激光通信技术,以提高网络速度和稳定性。Starlink 系统致力于覆盖偏远地区,减少数字鸿沟,并支持应急通信需求。

基本信息
目录编号:
51114
目录名称:
STARLINK-3375
国际标识:
2022-005L
轨道中心:
EARTH
卫星名称:
星链-3375
卫星全名:
星链-3375 (STARLINK-3375 )
卫星状态:
在轨 (已飞行1385 天)
发射日期:
2022-01-19 UTC
国别 :
美国 (US)
星等 :
--
轨道信息
数据来源 国际轨道数据
星历时间: 2025-11-04T13:56:42+0800
7小时前
查看轨道信息
半长轴: 6917.876km
偏心率: 0.0001333
轨道倾角: 53.214°
近地点辐角 90.782°
升交点赤经 132.252°
平近点角 269.333°
近地点: 538.818km
远地点: 540.664km
周期: 95.437分钟
每日圈数: 15.088415
详细信息
固有亮度:
5
最大亮度:
2.5
卫星平台:
Starlink v1.5
覆盖范围:
全球
运营商:
太空探索技术公司
运营商所在国:
美国
制造商(研发单位):
太空探索技术公司
制造商所在国:
美国
使用方式:
暂无
卫星简介
星链(Starlink)计划是由太空探索技术公司(SpaceX)提出的一个巨型低轨卫星互联网星座项目,计划在2019年至2024年间在太空搭建由约1.2万颗卫星组成的“星链”网络,其中1584颗将部署在地球上空550千米处的近地轨道,并从2020年开始工作。该卫星仍在工作。
2D轨道图
3D轨道图
轨道高度分析图
轨道倾角分析图
轨道综合分析图
查看轨道综合分析图